Weather History for Dubuque, IA

Change the Weather History Date:

Saturday, April 27, 2013

  Actual Average Record
Temperature  
Mean Temperature 53 °F 52 °F  
Max Temperature 63 °F 63 °F 82 °F (1962)
Min Temperature 42 °F 42 °F 28 °F (1958)
Degree Days  
Heating Degree Days 12 13  
Month to date heating degree days 606 474  
Since 1 July heating degree days 7029 6785  
Cooling Degree Days 0 0  
Month to date cooling degree days 0 0  
Year to date cooling degree days 0 0  
Growing Degree Days 2 (Base 50)    
Moisture  
Dew Point 44 °F    
Average Humidity 71    
Maximum Humidity 93    
Minimum Humidity 48    
Precipitation  
Precipitation 0.00 in 0.13 in 2.38 in (1942)
Month to date precipitation 8.52 3.25  
Year to date precipitation 14.51 8.27  
Snow  
Snow 0.00 in 0.00 in - ()
Month to date snowfall T 1.9  
Since 1 July snowfall 54.5 41.8  
Snow Depth 0.00 in    
Sea Level Pressure  
Sea Level Pressure 30.15 in    
Wind  
Wind Speed 6 mph (South)    
Max Wind Speed 15 mph    
Max Gust Speed 17 mph    
Visibility 10 miles    
Events      
T = Trace of Precipitation, MM = Missing Value Source: NWS Daily Summary

Daily Weather History Graph

Daily Weather History Graph

Search for Another Location

Airport:

Trip Planner

Search our weather history database for the weather conditions in past years. The results will help you decide how hot, cold, wet, or windy it might be!

Date:

Astronomy

Apr. 27, 2013 Rise Set
Actual Time 6:03 AM CDT 7:58 PM CDT
Civil Twilight 5:32 AM CDT 8:28 PM CDT
Nautical Twilight 4:55 AM CDT 9:05 PM CDT
Astronomical Twilight 4:15 AM CDT 9:46 PM CDT
Moon 10:30 PM CDT (4/27) 7:19 AM CDT (4/27)
Length of Visible Light 14h 55m
Length of Day
13h 55m
Waning Gibbous, 95% of the Moon is Illuminated
Apr 27
Waning Gibbous
May 2
Last Quarter
May 9
New
May 17
First Quarter
May 24
Full

Hourly Weather History & Observations

Time (CDT) Temp. Windchill Dew Point Humidity Pressure Visibility Wind Dir Wind Speed Gust Speed Precip Events Conditions
12:53 AM 46.9 °F - 44.1 °F 90% 30.24 in 10.0 mi SSW 9.2 mph - N/A   Clear
1:53 AM 46.9 °F - 45.0 °F 93% 30.23 in 10.0 mi SW 11.5 mph - N/A   Clear
2:53 AM 46.0 °F 43.1 °F 45.0 °F 96% 30.23 in 10.0 mi South 5.8 mph - N/A   Clear
3:53 AM 45.0 °F 42.6 °F 43.0 °F 93% 30.23 in 9.0 mi South 4.6 mph - N/A   Partly Cloudy
4:53 AM 44.1 °F 42.5 °F 43.0 °F 96% 30.22 in 9.0 mi South 3.5 mph - N/A   Clear
5:53 AM 44.1 °F 42.5 °F 43.0 °F 96% 30.21 in 8.0 mi SSW 3.5 mph - N/A   Clear
6:53 AM 44.1 °F 40.8 °F 43.0 °F 96% 30.21 in 6.0 mi SSW 5.8 mph - N/A   Clear
7:53 AM 48.9 °F - 46.9 °F 93% 30.22 in 9.0 mi South 6.9 mph - N/A   Clear
8:53 AM 53.1 °F - 48.0 °F 83% 30.20 in 10.0 mi SSW 6.9 mph - N/A   Clear
9:53 AM 55.9 °F - 46.0 °F 69% 30.18 in 10.0 mi SW 4.6 mph - N/A   Clear
10:53 AM 59.0 °F - 45.0 °F 60% 30.19 in 10.0 mi South 9.2 mph 17.3 mph N/A   Partly Cloudy
11:53 AM 60.1 °F - 45.0 °F 57% 30.19 in 10.0 mi South 10.4 mph - N/A   Mostly Cloudy
12:53 PM 60.1 °F - 44.1 °F 55% 30.17 in 10.0 mi South 8.1 mph - N/A   Overcast
1:53 PM 61.0 °F - 43.0 °F 52% 30.14 in 10.0 mi SE 5.8 mph - N/A   Overcast
2:53 PM 62.1 °F - 43.0 °F 50% 30.12 in 10.0 mi Variable 6.9 mph - N/A   Overcast
3:53 PM 62.1 °F - 43.0 °F 50% 30.10 in 10.0 mi South 6.9 mph - N/A   Overcast
4:53 PM 62.1 °F - 44.1 °F 52% 30.09 in 10.0 mi SE 11.5 mph - N/A   Overcast
5:53 PM 61.0 °F - 43.0 °F 52% 30.07 in 10.0 mi SE 9.2 mph - N/A   Overcast
6:53 PM 60.1 °F - 44.1 °F 55% 30.06 in 10.0 mi SE 6.9 mph - N/A   Overcast
7:53 PM 57.9 °F - 45.0 °F 62% 30.05 in 10.0 mi SE 3.5 mph - N/A   Overcast
8:53 PM 55.0 °F - 45.0 °F 69% 30.04 in 10.0 mi ESE 4.6 mph - N/A   Mostly Cloudy
9:53 PM 52.0 °F - 44.1 °F 74% 30.03 in 10.0 mi Calm Calm - N/A   Clear
10:53 PM 48.9 °F - 42.1 °F 77% 30.02 in 10.0 mi Calm Calm - N/A   Clear
11:53 PM 50.0 °F - 42.1 °F 74% 30.00 in 10.0 mi Calm Calm - N/A   Clear